weather.gov     
National Weather Service

Terminal Aerodrome Forecast
NWS Homepage
This page is being discontinued on March 12, 2014.
The same data is available at this site. Please update your bookmarks.
Thank you, and we apologize for the inconvenience.
Please send an email to SR-SRH.Webmaster@noaa.gov with any concerns.


Current Version
Previous Version:    01  02  03  04  05  06  07  08  09  10  11  12  13  14  15  16  17  18  19  20  21  22  23  24  25  26  27  28  29  30  
   31  32  33  34  35  
[Printable]
532
FTUS43 KLBF 230600 AAB
TAFLBF
TAF AMD
KLBF 230601Z 2306/2406 VRB02KT 3SM BR FEW120
      TEMPO 2306/2310 1/4SM FG VV001
     FM231000 33002KT 2SM BR SKC
      TEMPO 2310/2314 1/4SM FG VV001
     FM231800 22008KT P6SM SKC
     FM240000 VRB05KT P6SM SCT200=


U.S. Dept. of Commerce
NOAA National Weather Service
1325 East West Highway
Silver Spring, MD 20910
E-mail: w-nws.webmaster@noaa.gov
Page last modified: May 16, 2007
NATIONAL WEATHER SERVICE: for Safety, for Work, for Fun - FOR LIFE